Regional Weather Roundup
Issued by NWS

Home | Current Version | Previous Version | Graphics & Text | Print | Product List | Glossary On
Versions: 1 2 3 4 5 6 7 8 9 10 11 12 13 14 15 16 17 18 19 20 21 22 23 24 25 26 27 28 29 30 31 32 33 34 35 36 37 38 39 40 41 42 43 44 45 46 47 48 49 50
000
ASUS43 KLSX 241910
RWRMO

WEATHER SUMMARY FOR MISSOURI
NATIONAL WEATHER SERVICE SPRINGFIELD MO
200 PM CDT SAT JUN 24 2017

NOTE: "FAIR" INDICATES FEW OR NO CLOUDS BELOW 12,000 FEET WITH NO
       SIGNIFICANT WEATHER AND/OR OBSTRUCTIONS TO VISIBILITY.
       CURRENT SKY AND/OR WEATHER CONDITIONS ARE NOT AVAILABLE FOR
       CHILLICOTHE AND FARMINGTON.

MOZ001>031-035>038-043-044-053-054-242000-
...NORTHERN AND WESTERN MISSOURI...

CITY           SKY/WX    TMP DP  RH WIND       PRES   REMARKS
KANSAS CTY INT MOSUNNY   76  42  29 NW12G18   30.23F
KANSAS C DTWN  SUNNY     78  43  28 W9        30.21F
LEE`S SUMMIT   SUNNY     77  41  27 W13       30.22F
ST JOSEPH      SUNNY     77  42  28 W10       30.22F
CHILLICOTHE      N/A     75  42  30 NW10      30.21F
KIRKSVILLE     MOSUNNY   75  44  33 NW14G23   30.18F

$$
MOZ066>068-077>081-088>096-101>105-242000-
...SOUTHWEST MISSOURI...

CITY           SKY/WX    TMP DP  RH WIND       PRES   REMARKS
SPRINGFIELD    SUNNY     77  53  43 N17       30.20F
JOPLIN         SUNNY     79  53  40 NE10      30.22F
BRANSON        PTSUNNY   75  52  43 NW10      30.21F

$$
MOZ032>034-039>042-045>050-055>058-069>072-242000-
...CENTRAL MISSOURI...

CITY           SKY/WX    TMP DP  RH WIND       PRES   REMARKS
COLUMBIA       SUNNY     76  45  33 NW16G24   30.18S
JEFFERSON CITY SUNNY     77  43  29 NW14      30.17F
ROLLA          SUNNY     75  48  38 NW12G20   30.17S
SEDALIA        SUNNY     77  48  35 N10       30.21F
WHITEMAN AFB   SUNNY     76  43  30 N12G18    30.20F
WARRENSBURG    SUNNY     75  43  31 NW10G18   30.21F
OSAGE BEACH    SUNNY     76  46  34 NW8G16    30.19F

$$
MOZ051-052-059>065-242000-
...EAST CENTRAL MISSOURI...

CITY           SKY/WX    TMP DP  RH WIND       PRES   REMARKS
ST LOUIS INTL  MOSUNNY   79  48  33 NW9       30.13F
SPIRIT OF STL  MOSUNNY   78  50  37 NW17G24   30.12F
ST CHARLES     MOSUNNY   77  48  35 NW10G21   30.12S

$$
MOZ072>076-082>087-097>100-106>115-242000-
...SOUTH CENTRAL AND SOUTHEAST MISSOURI...

CITY           SKY/WX    TMP DP  RH WIND       PRES   REMARKS
CAPE GIRARDEAU MOSUNNY   79  55  43 NW12      30.11S
FARMINGTON     PTSUNNY   76  50  40 NW8G18    30.16S
POPLAR BLUFF   MOSUNNY   79  58  48 NW9       30.12S
WEST PLAINS    PTSUNNY   79  53  40 NW10      30.19F

$$



USA.gov is the U.S. government's official web portal to all federal, state and local government web resources and services.